TimePDT,TemperatureF,Dew PointF,Humidity,Sea Level PressureIn,VisibilityMPH,Wind Direction,Wind SpeedMPH,Gust SpeedMPH,PrecipitationIn,Events,Conditions,WindDirDegrees,DateUTC
12:53 AM,60.1,55.9,86,29.91,8.0,Calm,Calm,-,N/A,,Overcast,0,2009-05-10 07:53:00
1:18 AM,60.8,57.2,88,29.91,8.0,South,4.6,-,N/A,,Overcast,190,2009-05-10 08:18:00
1:53 AM,60.1,55.9,86,29.90,8.0,SE,6.9,-,N/A,,Overcast,140,2009-05-10 08:53:00
2:10 AM,60.8,57.2,88,29.89,8.0,Calm,Calm,-,N/A,,Overcast,0,2009-05-10 09:10:00
2:53 AM,61.0,57.0,87,29.89,8.0,SSE,3.5,-,N/A,,Overcast,160,2009-05-10 09:53:00
3:53 AM,61.0,55.9,83,29.89,9.0,East,3.5,-,N/A,,Overcast,90,2009-05-10 10:53:00
4:53 AM,60.1,55.9,86,29.89,9.0,SE,4.6,-,N/A,,Overcast,140,2009-05-10 11:53:00
5:53 AM,60.1,55.0,83,29.89,9.0,Variable,5.8,-,N/A,,Overcast,0,2009-05-10 12:53:00
6:53 AM,60.1,55.0,83,29.91,9.0,East,4.6,-,N/A,,Overcast,90,2009-05-10 13:53:00
7:53 AM,61.0,55.0,81,29.92,9.0,Calm,Calm,-,N/A,,Overcast,0,2009-05-10 14:53:00
8:53 AM,61.0,55.0,81,29.93,8.0,South,4.6,-,N/A,,Overcast,170,2009-05-10 15:53:00
9:53 AM,61.0,55.9,83,29.94,9.0,South,4.6,-,N/A,,Overcast,170,2009-05-10 16:53:00
10:53 AM,62.1,55.9,80,29.95,10.0,South,6.9,-,N/A,,Overcast,180,2009-05-10 17:53:00
11:53 AM,63.0,55.9,78,29.94,9.0,Calm,Calm,-,N/A,,Overcast,0,2009-05-10 18:53:00
12:18 PM,64.4,55.4,73,29.93,10.0,Calm,Calm,-,N/A,,Overcast,0,2009-05-10 19:18:00
12:53 PM,66.0,55.9,70,29.93,10.0,Variable,3.5,-,N/A,,Overcast,0,2009-05-10 19:53:00
1:30 PM,68.0,55.4,64,29.92,10.0,SW,9.2,-,N/A,,Scattered Clouds,230,2009-05-10 20:30:00
1:53 PM,66.9,55.0,66,29.91,10.0,Variable,5.8,-,N/A,,Clear,0,2009-05-10 20:53:00
2:53 PM,69.1,55.0,61,29.90,10.0,SSW,10.4,-,N/A,,Clear,200,2009-05-10 21:53:00
3:53 PM,69.1,55.0,61,29.88,10.0,South,8.1,-,N/A,,Clear,190,2009-05-10 22:53:00
4:53 PM,68.0,55.9,65,29.86,10.0,South,8.1,-,N/A,,Clear,180,2009-05-10 23:53:00
5:53 PM,68.0,55.9,65,29.86,10.0,SSW,6.9,-,N/A,,Clear,200,2009-05-11 00:53:00
6:53 PM,68.0,57.0,68,29.85,6.0,WNW,6.9,-,N/A,,Haze,290,2009-05-11 01:53:00
7:53 PM,63.0,55.9,78,29.86,5.0,WNW,8.1,-,N/A,,Haze,300,2009-05-11 02:53:00
8:53 PM,61.0,55.9,83,29.88,6.0,NW,9.2,-,N/A,,Haze,310,2009-05-11 03:53:00
9:53 PM,60.1,55.9,86,29.89,6.0,NW,8.1,-,N/A,,Clear,310,2009-05-11 04:53:00
10:53 PM,59.0,55.0,87,29.89,6.0,NW,4.6,-,N/A,,Clear,320,2009-05-11 05:53:00
11:53 PM,57.9,55.0,90,29.89,5.0,NW,4.6,-,N/A,,Clear,320,2009-05-11 06:53:00